{"data":{"norad_id":68696,"epoch":"2026-09-20T03:28:26.114880Z","epoch_age_seconds":93915,"freshness":"FRESH","line1":"1 68696U 26080F   26263.14474670  .00002928  00000+0  19255-3 0  9998","line2":"2 68696  97.6542 338.5366 0013721 101.1764 259.1007 15.08294817 23945","mean_motion":15.08294817,"eccentricity":0.0013721,"inclination_deg":97.6542,"raan_deg":338.5366,"arg_perigee_deg":101.1764,"mean_anomaly_deg":259.1007,"bstar":0.00019255,"rev_number":2394,"period_min":95.47205120443,"perigee_km":531.91598636917,"apogee_km":550.90460806219,"semimajor_km":6919.5472972157,"source":"CELESTRAK","updated_at":"2026-09-20T09:00:24.409473Z"}}